THOR ABLESTAR DEB, 659

Orbit data source: Space-Track

THOR ABLESTAR DEB, 659 is space debris in LEO originally from a launch on Thu, 29 Jun 1961 UTC launched from the Air Force Eastern Test Range (AFETR). Debris objects in space refer to the collection of defunct objects orbiting the Earth. Examples of debris include non-operational satellites, rocket bodies, and fragments generated from explosions, collisions, or faulty payload assembly.

Loading next visibility...
Identifier
659, 1961-015HL
Orbit
LEO
Country
Flag of USUS
Related business
Manufacturer
Unknown
Mission
Spacecraft
Bus & Motor
Unknown
Mass
Unknown
Launch date (UTC)
1961-06-29 (65 years ago)
Launch vehicle
Unknown
Launch site
Air Force Eastern Test Range (AFETR)
Object type
Payload
Rocket body
Debris
Shape & HBR
Unknown shape, 0.2 m
Radar Cross Section
Medium (>0.1 m² and <1 m²)

Expand to show TLE details & history
Last TLE update: 19 hours ago

TLE from 19 hours ago
0 THOR ABLESTAR DEB
1 00659U 61015HL  26235.68639610  .00000486  00000-0  14258-2 0  9990
2 00659  67.1637 327.9435 0590422 246.8814 270.4948 12.66875665999575
Epoch: 2026-08-23T16:28Z
TLE epoch observation values (Epoch: 2026-08-23T16:28:24.623Z)
Latitude
26.92758°
Longitude
-83.42685°
Altitude
1,420.18 km
Speed
7.143 km/s
True Right ascension
09h 02m 37s
True Declination
26° 48' 03"
Sunlit
Object was in daylight at epoch
Visualization orbit readout
Latitude
Unknown
Longitude
Unknown
Altitude
Unknown
Speed
Unknown
Apparent Right ascension
Unknown
Apparent Declination
Unknown
Sunlit
N/A
Visualization observer readout
Local Sidereal Time
02:48:21
Azimuth
Unknown
Elevation
Unknown
Doppler factor
Unknown
Orbital elements
Apogee altitude
1,851.97 km
Perigee altitude
934.304 km
Semi-major axis
7,771.274 km
Eccentricity
0.05904
Inclination
67.1637°
RAAN
327.9435°
Arg. of periapsis
246.8814°
True anomaly
263.74068°
Mean anomaly
270.4948°
Eccentric anomaly
267.11622°
Mean motion
3.16814 °/min
Orbital period
113.63 mins
BSTAR
0.0014258
Loading maneuver chart data...
Computing Atmospheric mass density...
Loading historical data...
Loading historical data...
Loading historical data...
Loading historical data...
Loading historical data...
Loading historical data...
Loading historical data...

Documentation

Showing up to 5 results
|